{"data":{"norad_id":57629,"intl_designator":"2023-121D","name":"HEAD-3D","alt_names":[],"object_type":"PAYLOAD","status":"ACTIVE","operator":null,"country":"PRC","launch_date":"2023-08-14","launch_site_code":"XICLF","launch_vehicle":null,"mission":null,"orbit_class":"UNKNOWN","rcs_meters":null,"size_class":null,"mass_kg":null,"dimensions":null,"purposes":[],"wikipedia_slug":null,"has_3d_model":false,"image_url":null,"decayed_at":null,"tle_current":{"epoch":"2026-05-25T04:40:40.013184Z","epoch_age_seconds":54290,"freshness":"FRESH","line1":"1 57629U 23121D   26145.19490756  .00000832  00000+0  19264-3 0  9994","line2":"2 57629  45.0049  48.1030 0006379 149.2051 210.9182 14.62878007148432","mean_motion":14.62878007,"eccentricity":0.0006379,"inclination_deg":45.0049,"raan_deg":48.103,"arg_perigee_deg":149.2051,"mean_anomaly_deg":210.9182,"bstar":0.00019264,"rev_number":14843,"period_min":98.436096045567,"perigee_km":679.39153304985,"apogee_km":688.40127526687,"semimajor_km":7062.0334041584,"source":"CELESTRAK","updated_at":"2026-05-25T13:38:00.149433Z"}}}